Weather History for KRNT - March, 2014

Change the Weather History Date:

Saturday, March 22, 2014

  Actual Average Record
Temperature  
Mean Temperature 43 °F -  
Max Temperature 54 °F 52 °F 66 °F (1999)
Min Temperature 32 °F 40 °F 32 °F (2008)
Degree Days  
Heating Degree Days 22    
Moisture  
Dew Point 32 °F    
Average Humidity 68    
Maximum Humidity 96    
Minimum Humidity 30    
Precipitation  
Precipitation 0.00 in - - ()
Sea Level Pressure  
Sea Level Pressure 30.30 in    
Wind  
Wind Speed 2 mph (West)    
Max Wind Speed 8 mph    
Max Gust Speed -    
Visibility 10 miles    
Events      
Averages and records for this station are not official NWS values.
T = Trace of Precipitation, MM = Missing Value Source: NWS Daily Summary

Daily Weather History Graph

Daily Weather History Graph

Search for Another Location

Airport or City:

Trip Planner

Search our weather history database for the weather conditions in past years. The results will help you decide how hot, cold, wet, or windy it might be!

Date:

Astronomy

Mar. 22, 2014 Rise Set
Actual Time 7:07 AM PDT 7:24 PM PDT
Civil Twilight 6:36 AM PDT 7:55 PM PDT
Nautical Twilight 6:00 AM PDT 8:31 PM PDT
Astronomical Twilight 5:23 AM PDT 9:09 PM PDT
Moon 1:08 AM PDT (3/22) 10:35 AM PDT (3/22)
Length of Visible Light 13h 18m
Length of Day
12h 17m
Waning Gibbous, 64% of the Moon is Illuminated
Mar 22
Waning Gibbous
Mar 23
Last Quarter
Mar 30
New
Apr 7
First Quarter
Apr 15
Full

Hourly Weather History & Observations

Time (PDT) Temp. Windchill Dew Point Humidity Pressure Visibility Wind Dir Wind Speed Gust Speed Precip Events Conditions
12:53 AM 37.9 °F - 34.0 °F 86% 30.34 in 10.0 mi Calm Calm - N/A   Clear
1:53 AM 36.0 °F - 33.1 °F 89% 30.35 in 10.0 mi Calm Calm - N/A   Clear
2:53 AM 35.1 °F 32.2 °F 32.0 °F 89% 30.35 in 10.0 mi ESE 3.5 mph - N/A   Clear
3:53 AM 34.0 °F - 32.0 °F 92% 30.34 in 10.0 mi Calm Calm - N/A   Clear
4:53 AM 33.1 °F 30.0 °F 30.9 °F 92% 30.35 in 10.0 mi SE 3.5 mph - N/A   Clear
5:53 AM 32.0 °F - 30.9 °F 96% 30.35 in 10.0 mi Calm Calm - N/A   Clear
6:53 AM 32.0 °F 28.7 °F 30.0 °F 92% 30.35 in 10.0 mi SE 3.5 mph - N/A   Clear
7:53 AM 33.1 °F - 30.9 °F 92% 30.35 in 10.0 mi Calm Calm - N/A   Clear
8:53 AM 36.0 °F 32.1 °F 32.0 °F 86% 30.35 in 10.0 mi SE 4.6 mph - N/A   Clear
9:53 AM 41.0 °F 39.0 °F 32.0 °F 70% 30.35 in 10.0 mi SSE 3.5 mph - N/A   Clear
10:53 AM 45.0 °F - 30.9 °F 58% 30.35 in 10.0 mi Calm Calm - N/A   Clear
11:53 AM 48.0 °F - 32.0 °F 54% 30.33 in 10.0 mi Calm Calm - N/A   Mostly Cloudy
12:53 PM 50.0 °F - 30.9 °F 48% 30.32 in 10.0 mi NW 4.6 mph - N/A   Partly Cloudy
1:53 PM 52.0 °F - 28.0 °F 40% 30.30 in 10.0 mi SSE 3.5 mph - N/A   Mostly Cloudy
2:53 PM 52.0 °F - 32.0 °F 47% 30.28 in 10.0 mi Variable 3.5 mph - N/A   Mostly Cloudy
3:53 PM 54.0 °F - 23.0 °F 30% 30.27 in 10.0 mi SSW 6.9 mph - N/A   Clear
4:53 PM 51.1 °F - 30.9 °F 46% 30.25 in 10.0 mi NNW 4.6 mph - N/A   Scattered Clouds
5:53 PM 50.0 °F - 33.1 °F 52% 30.24 in 10.0 mi NNW 4.6 mph - N/A   Scattered Clouds
6:53 PM 50.0 °F - 30.0 °F 46% 30.22 in 10.0 mi WNW 5.8 mph - N/A   Overcast
7:53 PM 48.9 °F - 30.9 °F 50% 30.23 in 10.0 mi WNW 6.9 mph - N/A   Partly Cloudy
8:53 PM 48.0 °F - 34.0 °F 58% 30.24 in 10.0 mi WNW 8.1 mph - N/A   Clear
9:53 PM 46.0 °F 41.9 °F 36.0 °F 68% 30.25 in 10.0 mi NW 8.1 mph - N/A   Clear
10:53 PM 45.0 °F 41.8 °F 37.9 °F 76% 30.27 in 10.0 mi NW 5.8 mph - N/A   Partly Cloudy
11:53 PM 43.0 °F - 37.0 °F 80% 30.27 in 10.0 mi Calm Calm - N/A   Scattered Clouds